Meriden, CT

4:54 AM EDT on March 26, 2017 (GMT -0400)
Meriden Markham Municipal

Weather History for KMMK - December, 2013

Change the Weather History Date:

Wednesday, December 4, 2013

  Actual Average (KOXC) Record (KOXC)
Temperature  
Mean Temperature 38 °F -  
Max Temperature 51 °F 40 °F 68 °F (1998)
Min Temperature 24 °F 26 °F 10 °F (2000)
Degree Days  
Heating Degree Days 28    
Moisture  
Dew Point 27 °F    
Average Humidity 83    
Maximum Humidity 96    
Minimum Humidity 46    
Precipitation  
Precipitation 0.00 in - - ()
Sea Level Pressure  
Sea Level Pressure 30.09 in    
Wind  
Wind Speed 0 mph (SSW)    
Max Wind Speed 5 mph    
Max Gust Speed -    
Visibility 5 miles    
Events      
Averages and records for this station are not official NWS values.
T = Trace of Precipitation, MM = Missing Value Source: NWS Daily Summary

Daily Weather History Graph

Daily Weather History Graph

Search for Another Location

Airport or City:

Trip Planner

Search our weather history database for the weather conditions in past years. The results will help you decide how hot, cold, wet, or windy it might be!

Date:

Astronomy

Dec. 04, 2013 Rise Set
Actual Time 7:01 AM EST 4:21 PM EST
Civil Twilight 6:30 AM EST 4:52 PM EST
Nautical Twilight 5:55 AM EST 5:27 PM EST
Astronomical Twilight 5:22 AM EST 6:00 PM EST
Moon 8:26 AM EST (12/4) 6:29 PM EST (12/4)
Length of Visible Light 10h 22m
Length of Day
9h 20m
Waxing Crescent, 4% of the Moon is Illuminated
Dec 4
Waxing Crescent
Dec 9
First Quarter
Dec 17
Full
Dec 25
Last Quarter
Jan 1
New

Hourly Weather History & Observations

Time (EST) Temp. Windchill Dew Point Humidity Pressure Visibility Wind Dir Wind Speed Gust Speed Precip Events Conditions
12:01 AM 28.0 °F - 26.1 °F 92% 30.01 in 3.0 mi Calm Calm - N/A   Scattered Clouds
12:21 AM 27.0 °F - 25.0 °F 92% 30.01 in 1.5 mi Calm Calm - N/A   Scattered Clouds
12:26 AM 27.0 °F - 25.0 °F 92% 30.01 in 0.8 mi Calm Calm - N/A   Mist
12:43 AM 27.0 °F - 25.0 °F 92% 30.02 in 1.5 mi Calm Calm - N/A   Scattered Clouds
12:46 AM 26.1 °F - 24.1 °F 92% 30.02 in 3.0 mi Calm Calm - N/A   Scattered Clouds
12:53 AM 26.1 °F - 24.1 °F 92% 30.02 in 3.0 mi Calm Calm - N/A   Partly Cloudy
1:35 AM 27.0 °F - 24.1 °F 89% 30.03 in 1.8 mi Calm Calm - N/A   Partly Cloudy
1:53 AM 26.1 °F - 24.1 °F 92% 30.04 in 1.2 mi Calm Calm - N/A   Partly Cloudy
1:59 AM 26.1 °F - 24.1 °F 92% 30.03 in 3.0 mi Calm Calm - N/A   Partly Cloudy
2:40 AM 26.1 °F - 23.0 °F 88% 30.04 in 1.8 mi Calm Calm - N/A   Clear
2:53 AM 26.1 °F - 23.0 °F 88% 30.04 in 1.2 mi Calm Calm - N/A   Clear
3:08 AM 25.0 °F - 21.9 °F 88% 30.03 in 2.5 mi Calm Calm - N/A   Clear
3:15 AM 26.1 °F - 24.1 °F 92% 30.03 in 3.0 mi Calm Calm - N/A   Partly Cloudy
3:29 AM 26.1 °F - 25.0 °F 96% 30.03 in 2.0 mi Calm Calm - N/A   Clear
3:43 AM 25.0 °F - 23.0 °F 92% 30.03 in 1.5 mi Calm Calm - N/A   Clear
3:48 AM 24.8 °F - 21.2 °F 86% 30.03 in 3.0 mi Calm Calm - N/A   Clear
3:53 AM 24.1 °F - 21.0 °F 88% 30.04 in 4.0 mi Calm Calm - N/A   Clear
4:39 AM 25.0 °F - 21.9 °F 88% 30.05 in 2.5 mi Calm Calm - N/A   Clear
4:46 AM 25.0 °F - 23.0 °F 92% 30.05 in 3.0 mi Calm Calm - N/A   Clear
4:53 AM 24.1 °F - 21.9 °F 91% 30.06 in 3.0 mi Calm Calm - N/A   Clear
5:53 AM 25.0 °F - 23.0 °F 92% 30.09 in 3.0 mi Calm Calm - N/A   Clear
6:53 AM 27.0 °F - 24.1 °F 89% 30.11 in 4.0 mi Calm Calm - N/A   Clear
7:16 AM 26.1 °F - 25.0 °F 96% 30.11 in 2.5 mi Calm Calm - N/A   Clear
7:23 AM 27.0 °F - 25.0 °F 92% 30.11 in 3.0 mi Calm Calm - N/A   Clear
7:53 AM 28.9 °F - 27.0 °F 92% 30.12 in 3.0 mi Calm Calm - N/A   Partly Cloudy
8:21 AM 30.9 °F - 28.9 °F 92% 30.12 in 2.5 mi Calm Calm - N/A   Partly Cloudy
8:31 AM 30.9 °F - 28.9 °F 92% 30.12 in 3.0 mi Calm Calm - N/A   Partly Cloudy
8:53 AM 32.0 °F - 30.0 °F 92% 30.13 in 4.0 mi Calm Calm - N/A   Scattered Clouds
9:53 AM 37.0 °F - 33.1 °F 86% 30.13 in 6.0 mi Calm Calm - N/A   Clear
10:53 AM 42.1 °F 40.2 °F 28.9 °F 60% 30.12 in 10.0 mi Variable 3.5 mph - N/A   Clear
11:53 AM 46.0 °F 44.8 °F 28.9 °F 51% 30.12 in 10.0 mi South 3.5 mph - N/A   Clear
12:53 PM 48.9 °F - 28.9 °F 46% 30.11 in 10.0 mi Calm Calm - N/A   Clear
1:53 PM 50.0 °F - 30.9 °F 48% 30.09 in 10.0 mi South 4.6 mph - N/A   Clear
2:53 PM 51.1 °F - 30.9 °F 46% 30.09 in 10.0 mi Calm Calm - N/A   Clear
3:53 PM 46.0 °F - 32.0 °F 58% 30.12 in 10.0 mi Calm Calm - N/A   Clear
4:53 PM 41.0 °F - 33.1 °F 73% 30.13 in 10.0 mi Calm Calm - N/A   Scattered Clouds
5:53 PM 37.0 °F - 32.0 °F 82% 30.15 in 8.0 mi Calm Calm - N/A   Clear
6:53 PM 34.0 °F - 30.0 °F 85% 30.16 in 7.0 mi Calm Calm - N/A   Partly Cloudy
7:53 PM 34.0 °F - 30.0 °F 85% 30.16 in 6.0 mi Calm Calm - N/A   Clear
8:53 PM 35.1 °F - 30.9 °F 85% 30.17 in 7.0 mi Calm Calm - N/A   Overcast
9:53 PM 37.9 °F - 34.0 °F 86% 30.18 in 6.0 mi Calm Calm - N/A   Overcast
10:53 PM 39.9 °F - 34.0 °F 79% 30.18 in 7.0 mi Calm Calm - N/A   Overcast
11:17 PM 41.0 °F - 33.1 °F 73% 30.18 in 8.0 mi Calm Calm - N/A   Overcast
11:53 PM 39.9 °F 37.8 °F 30.0 °F 68% 30.18 in 9.0 mi NW 3.5 mph - N/A   Overcast